Retour au catalogue

COSMOS 1275 DEB

ActifPO
NORAD 42111·DEBRIS·🇷🇺 Russia

Lancé Jun 4, 1981 depuis Plesetsk Cosmodrome

Loading…

Prochains Passages (prochaines 24 heures)

TLE

VieillissantSource: Space-Track

Époque: Sep 11, 2026, 06:20 UTC

1 42111U 81053PX  26254.26416308  .00003013  00000-0  10643-2 0  9998
2 42111  82.8059 200.2296 0040139  73.9376 286.6227 14.33989462662114

Suivez COSMOS 1275 DEB en temps réel avec AllMySat

Download on the App Store